Weather Roundup
Issued by NWS Springfield, MO

Home | Current Version | Previous Version | Text Only | Print | Product List | Glossary On
Versions: 1 2 3 4 5 6 7 8 9 10 11 12 13 14 15 16 17 18 19 20 21 22 23 24 25 26 27 28 29 30 31 32 33 34 35 36 37 38 39 40 41 42 43 44 45 46 47 48 49 50
011
NZUS99 KSGF 121657
HRRSGF

HOURLY WEATHER
NATIONAL WEATHER SERVICE SPRINGFIELD MO
1100 AM CST FRI FEB 12 2016

......SGF CWA......

CITY           SKY/WX    TMP DP  RH WIND       PRES   REMARKS
SPRINGFIELD    SUNNY     40  24  53 N18       30.32R WCI  31
JOPLIN         SUNNY     39  25  57 N13G23    30.38R WCI  31
WEST PLAINS    SUNNY     43  24  47 NW14      30.27R
ROLLA          PTSUNNY   33  24  69 NW15      30.29R WCI  23
BRANSON        SUNNY     43  25  49 NW14G20   30.30R

......SURROUNDING SGF CWA......

CITY           SKY/WX    TMP DP  RH WIND       PRES   REMARKS
CHANUTE        SUNNY     38  25  59 N17G26    30.42R WCI  28
PARSONS        SUNNY     40  26  57 NE13G22   30.42R WCI  32
EMPORIA        PTSUNNY   35  26  69 N15G21    30.42R WCI  25
HARRISON AR    SUNNY     46  27  47 NW10      30.29R

......KANSAS AND MISSOURI......

CITY           SKY/WX    TMP DP  RH WIND       PRES   REMARKS
KANSAS CTY INT PTSUNNY   34  23  64 N18G25    30.41R WCI  23
SEDALIA        SUNNY     35  21  56 N16       30.38R WCI  25
ST JOSEPH      MOSUNNY   30  18  60 N21       30.45R WCI  17
ST LOUIS       CLOUDY    31  23  72 NW10      30.31R WCI  22
WICHITA        PTSUNNY   36  27  69 NE18G25   30.41R WCI  26
TOPEKA         CLOUDY    34  22  61 N10       30.46R WCI  26
OLATHE         CLOUDY    33  22  63 N16G24    30.42R WCI  23

......TENNESSEE......

CITY           SKY/WX    TMP DP  RH WIND       PRES   REMARKS
MEMPHIS        NOT AVBL
NASHVILLE      CLOUDY    39  23  52 VRB5      30.21R

......ARKANSAS.......

CITY           SKY/WX    TMP DP  RH WIND       PRES   REMARKS
FAYETTEVILLE   SUNNY     49  32  52 NW12      30.31R
FT SMITH       SUNNY     52  26  36 W9        30.32R
LITTLE ROCK    MOSUNNY   53  28  38 VRB6      30.29R

......OKLAHOMA.......

CITY           SKY/WX    TMP DP  RH WIND       PRES   REMARKS
TULSA          PTSUNNY   46  31  55 N18G24    30.37R
PONCA CITY     SUNNY     45  30  55 NE16      30.39R
MCALESTER      MOSUNNY   55  31  39 NE9       30.33R
OKLAHOMA CITY  MOSUNNY   52  33  48 N13       30.35R

......IOWA............

CITY           SKY/WX    TMP DP  RH WIND       PRES   REMARKS
DES MOINES     NOT AVBL
QUAD CITIES    PTSUNNY   23  10  57 NW18      30.28R WCI   9

......ILLINOIS........

CITY           SKY/WX    TMP DP  RH WIND       PRES   REMARKS
QUINCY         NOT AVBL
CHICAGO        PTSUNNY   20   8  60 NW20      30.15S WCI   4




USA.gov is the U.S. government's official web portal to all federal, state and local government web resources and services.